Location: Narrabri
(30.3170°S, 149.7830°E)
Time: 13:34:37
(UTC+11:00)

Vanguard 3 - All Passes

Search period start: 22 October 2017 00:00
Search period end: 01 November 2017 00:00
Orbit: 510 x 3263 km, 33.3° (Epoch: 21 October)

Date Brightness Start Highest point End Pass type
(mag) Time Alt. Az. Time Alt. Az. Time Alt. Az.
22 Oct - 01:18:52 10° W 01:33:29 29° NW 01:48:19 10° N visible
22 Oct - 15:13:53 10° NNW 15:18:33 33° NE 15:25:57 10° E daylight
22 Oct - 17:23:32 10° WNW 17:30:27 88° SSW 17:43:24 10° ESE daylight
22 Oct - 19:35:04 10° W 19:45:01 79° S 20:02:30 10° E visible
22 Oct - 21:47:28 10° WSW 22:01:03 77° NNW 22:20:58 10° ENE visible
23 Oct - 00:01:54 10° W 00:17:19 42° NW 00:35:02 10° NNE visible
23 Oct - 02:25:06 10° WNW 02:32:39 13° NW 02:40:07 10° NNW visible
23 Oct - 14:03:29 10° NNE 14:05:45 13° NE 14:08:27 10° ENE daylight
23 Oct - 16:10:47 10° WNW 16:16:21 69° NNE 16:26:23 10° ESE daylight
23 Oct - 18:21:39 10° W 18:29:39 76° S 18:44:25 10° E daylight
23 Oct - 20:33:28 10° WSW 20:44:51 90° NNE 21:03:41 10° ENE visible
23 Oct - 22:46:29 10° WSW 23:00:57 56° NNW 23:20:10 10° NE visible
24 Oct - 01:03:38 10° W 01:16:47 25° NW 01:30:44 10° N visible
24 Oct - 14:58:35 10° NNW 15:03:00 38° NE 15:09:58 10° E daylight
24 Oct - 17:08:33 10° W 17:14:57 82° S 17:26:51 10° ESE daylight
24 Oct - 19:19:55 10° WSW 19:29:10 80° S 19:45:45 10° E visible
24 Oct - 21:32:03 10° WSW 21:44:39 71° NNW 22:04:00 10° NE visible
24 Oct - 23:46:26 10° W 00:00:39 37° NW 00:17:44 10° NNE visible
25 Oct - 02:14:36 10° NW 02:16:14 10° NW 02:17:52 10° NW night (unlit)
25 Oct - 13:47:32 10° N 13:50:10 15° NE 13:53:21 10° ENE daylight
25 Oct - 15:55:45 10° WNW 16:00:54 77° NNE 16:10:05 10° ESE daylight
25 Oct - 18:06:39 10° W 18:14:03 75° S 18:27:47 10° E daylight
25 Oct - 20:18:13 10° WSW 20:28:45 85° NNW 20:46:48 10° ENE visible
25 Oct - 22:31:03 10° W 22:44:25 50° NNW 23:02:57 10° NE visible
26 Oct - 00:48:48 10° W 01:00:13 20° NW 01:12:41 10° N visible
26 Oct - 14:43:21 10° NW 14:47:32 44° NNE 14:54:03 10° E daylight
26 Oct - 16:53:36 10° W 16:59:32 77° S 17:10:23 10° E daylight
26 Oct - 19:04:49 10° WSW 19:13:21 82° SSE 19:29:00 10° E daylight
26 Oct - 21:16:42 10° WSW 21:28:22 65° NNW 21:46:53 10° NE visible
26 Oct - 23:31:13 10° W 23:44:07 31° NW 00:00:06 10° NNE visible
27 Oct - 13:31:48 10° N 13:34:38 18° NE 13:38:08 10° E daylight
27 Oct - 15:40:45 10° WNW 15:45:34 87° NNE 15:53:52 10° ESE daylight
27 Oct - 17:51:40 10° W 17:58:31 74° S 18:11:13 10° E daylight
27 Oct - 20:03:00 10° WSW 20:12:44 80° NNW 20:29:50 10° ENE visible
27 Oct - 22:15:45 10° W 22:28:02 44° NNW 22:45:31 10° NNE visible
28 Oct - 00:34:37 10° WNW 00:43:49 16° NW 00:53:57 10° N visible
28 Oct - 14:28:11 10° NW 14:32:11 51° NNE 14:38:12 10° ESE daylight
28 Oct - 16:38:41 10° W 16:44:11 72° S 16:54:02 10° E daylight
28 Oct - 18:49:44 10° WSW 18:57:38 86° SSE 19:12:15 10° ENE daylight
28 Oct - 21:01:27 10° WSW 21:12:11 57° NNW 21:29:38 10° NE visible
28 Oct - 23:16:17 10° W 23:27:44 26° NW 23:42:08 10° NNE visible
29 Oct - 13:16:11 10° NNW 13:19:13 22° NE 13:22:53 10° E daylight
29 Oct - 15:25:48 10° WNW 15:30:18 84° SSW 15:37:48 10° ESE daylight
29 Oct - 17:36:42 10° WSW 17:43:02 74° S 17:54:43 10° E daylight
29 Oct - 19:47:51 10° WSW 19:56:49 73° NNW 20:12:49 10° ENE visible
29 Oct - 22:00:39 10° W 22:11:46 37° NNW 22:27:53 10° NNE visible
30 Oct - 00:21:45 10° WNW 00:27:36 12° NW 00:33:55 10° NNW visible
30 Oct - 14:13:03 10° WNW 14:16:55 62° NNE 14:22:27 10° ESE daylight
30 Oct - 16:23:46 10° W 16:28:52 68° S 16:37:48 10° E daylight
30 Oct - 18:34:40 10° WSW 18:41:57 89° NNW 18:55:31 10° ENE daylight
30 Oct - 20:46:19 10° W 20:56:09 50° NNW 21:12:15 10° NE visible
30 Oct - 23:01:44 10° WNW 23:11:30 21° NW 23:23:46 10° N visible
31 Oct - 13:00:39 10° NNW 13:03:52 28° NNE 13:07:38 10° E daylight
31 Oct - 15:10:52 10° W 15:15:06 75° S 15:21:49 10° ESE daylight
31 Oct - 17:21:44 10° WSW 17:27:36 76° S 17:38:18 10° E daylight
31 Oct - 19:32:46 10° WSW 19:40:59 65° NNW 19:55:45 10° NE visible
31 Oct - 21:45:45 10° W 21:55:41 31° NNW 22:10:00 10° NNE visible
